CAPE
0 0 0 0 0 0 0 0 0 0 0 0 0 0 0 0 0 0 0 0 0 0 0 0 0 0 0 0 0 0 0 0 0 0 0 0 0 0 0 0 0 0 0 0 0
0 0 0 0 0 0 0 0 0 0 0 0 0 0 0 0 0 0 0 0 0 0 0 0 0 0 0 0 0 0 0 0 0 0 0 0 0 0 0 0 0 0 0 0 0
0 0 0 0 0 0 0 0 0 0 0 0 0 0 0 0 0 0 0 0 0 0 0 0 0 0 0 0 0 0 0 0 0 0 0 0 0 0 0 0 0 0 0 0 0
0 0 0 0 0 0 0 0 0 0 0 0 0 0 0 0 0 0 0 0 0 0 0 0 0 0 0 0 0 0 0 0 0 0 0 0 0 0 0 0 0 0 0 0 0
0 0 0 0 0 0 0 0 0 0 0 0 0 0 0 0 0 0 0 0 0 0 0 0 0 0 0 0 0 0 0 0 0 0 0 0 0 0 0 0 0 0 0 0 0
0 0 0 0 0 0 0 0 0 0 0 0 0 0 0 0 0 0 0 0 0 0 0 0 0 0 0 0 0 0 0 0 0 0 0 0 0 0 0 0 0 0 0 0 0
0 0 0 0 0 0 0 0 0 0 0 0 0 0 0 0 0 0 0 0 0 0 0 0 0 0 0 0 0 0 0 0 0 0 0 0 0 0 0 0 0 0 0 0 0
0 0 0 0 0 0 0 0 0 0 0 0 0 0 0 0 0 0 0 0 0 0 0 0 0 0 0 0 0 0 0 0 0 0 0 0 0 0 0 0 0 0 0 0 0
0 0 0 0 0 0 0 0 0 0 0 0 0 0 0 0 0 0 0 0 0 0 0 0 0 0 0 0 0 0 0 0 0 0 0 0 0 0 0 0 0 0 0 0 0
0 0 0 0 0 0 0 0 0 0 0 0 0 0 0 0 0 0 0 0 0 0 0 0 0 0 0 0 0 0 0 0 0 0 0 0 0 0 0 0 0 0 0 0 0
0 0 0 0 0 0 0 0 0 0 0 0 0 0 0 0 0 0 0 0 0 0 0 0 0 0 0 0 0 0 0 0 0 0 0 0 0 0 0 0 0 0 0 0 0
0 0 0 0 0 0 0 0 0 0 0 0 0 0 0 0 0 0 0 0 0 0 0 0 0 0 0 0 0 0 0 0 0 0 0 0 0 0 0 0 0 0 0 0 0
0 0 0 0 0 0 0 0 0 0 0 0 0 0 0 0 0 0 0 0 0 0 0 0 0 0 0 0 0 0 0 0 0 0 0 0 0 0 0 0 0 0 0 0 0
0 0 0 0 0 0 0 0 0 0 0 0 0 0 0 0 0 0 0 0 0 0 0 0 0 0 0 0 0 0 0 0 0 0 0 0 0 0 0 0 0 0 0 0 0
0 0 0 0 0 0 0 0 0 0 0 0 0 0 0 0 0 0 0 0 0 0 0 0 0 0 0 0 0 0 0 0 0 0 0 0 0 0 0 0 0 0 0 0 0
0 0 0 0 0 0 0 0 0 0 0 0 0 0 0 0 0 0 0 0 0 0 0 0 0 0 0 0 0 0 0 0 0 0 0 0 0 0 0 0 0 0 0 0 0
1 0 0 0 0 0 0 0 0 0 0 0 0 0 0 0 0 0 0 0 0 0 0 0 0 0 0 0 0 0 0 0 0 0 0 0 0 0 0 0 0 0 0 0 0
0 0 0 0 0 0 0 0 1 4 0 0 0 0 0 0 0 0 0 0 0 0 0 0 0 0 0 0 0 0 0 0 0 0 0 0 0 0 0 0 0 0 0 0 0
0 0 0 0 0 0 0 3 5 4 0 0 0 0 0 0 0 0 0 0 0 0 0 0 0 0 0 0 0 0 0 0 0 0 0 0 0 0 0 0 0 0 0 0 0
0 0 0 0 0 0 1 1 0 2 0 0 0 0 1 0 0 0 0 0 0 0 0 0 0 0 0 0 0 0 0 0 0 0 0 0 0 0 0 0 0 0 0 0 0
0 0 1 0 0 1 2 0 0 0 0 0 1 0 1 1 2 1 1 0 0 0 0 0 0 0 0 0 0 0 0 0 0 0 0 0 0 0 0 0 0 0 0 0 0
2 2 1 0 0 1 0 0 0 0 0 0 0 0 2 0 3 0 0 1 0 0 0 0 0 0 0 0 0 0 0 0 0 0 0 0 0 0 0 0 0 0 0 0 0
6 0 2 0 2 0 1 0 0 0 0 1 0 0 0 5 2 0 0 0 0 0 0 0 0 0 0 0 0 0 0 0 0 0 0 0 0 0 0 0 0 0 0 0 0
1 0 2 1 1 0 0 0 0 0 0 0 0 0 0 0 0 1 0 0 0 0 0 0 0 0 0 0 0 0 0 0 0 0 0 0 0 0 0 0 0 0 0 0 0
13 4 0 0 0 1 0 4 10 9 0 0 0 0 0 0 0 0 1 0 0 0 0 0 0 0 0 0 0 0 0 0 0 0 0 0 0 0 0 0 0 0 0 0 0
13 15 1 4 0 0 1 1 1 4 11 0 1 0 1 12 0 0 0 0 0 0 0 0 0 0 0 0 0 0 0 0 0 0 0 0 0 0 0 0 0 0 0 0 0
22 1 0 0 1 0 0 0 2 1 4 2 2 5 3 3 4 7 14 0 1 0 0 0 1 0 0 0 0 0 0 0 0 0 0 0 0 0 0 0 0 0 0 0 0
CIN
0 0 0 0 0 0 0 0 0 0 0 0 0 0 0 0 0 0 0 0 0 0 0 0 0 0 0 0 0 0 0 0 0 0 0 0 0 0 0 0 0 0 0 -153 0
0 0 0 0 0 0 0 0 0 0 0 0 0 0 0 0 0 0 0 0 0 0 0 0 0 0 0 0 0 0 0 0 0 0 0 0 0 0 0 0 0 0 0 0 0
0 0 0 0 0 0 0 0 0 0 0 0 0 0 0 0 0 0 0 0 0 0 0 0 0 0 0 0 0 0 0 0 0 0 0 0 0 0 0 0 0 0 0 0 0
0 0 0 0 0 0 0 0 0 0 0 0 0 0 0 0 0 0 0 0 0 0 0 0 0 0 0 0 0 0 0 0 0 0 0 0 0 0 0 0 0 0 0 0 0
0 0 0 0 0 0 0 0 0 0 0 0 0 0 0 0 0 0 0 0 0 0 0 0 0 0 0 0 0 0 0 0 0 0 0 0 0 0 0 0 0 0 0 0 0
0 0 0 0 0 0 0 0 0 0 0 0 0 0 0 0 0 0 0 0 0 0 0 0 0 0 0 0 0 0 0 0 0 0 0 0 0 0 0 0 0 0 0 0 0
0 0 0 0 0 0 0 0 0 0 0 0 0 0 0 0 0 0 0 0 0 0 0 0 0 0 0 0 0 0 0 0 0 0 0 0 0 0 0 0 0 0 0 0 0
0 0 0 0 0 0 0 0 0 0 0 0 0 0 0 0 0 0 0 0 0 0 0 0 0 0 0 0 0 0 0 0 0 0 0 0 0 0 0 0 0 0 0 0 0
0 0 0 0 0 0 0 0 0 0 0 0 0 0 0 0 0 0 0 0 0 0 0 0 0 0 0 0 0 0 0 0 0 0 0 0 0 0 0 0 0 0 0 0 0
0 0 0 0 0 0 0 0 0 0 0 0 0 0 0 0 0 0 0 0 0 0 0 0 0 0 0 0 0 0 0 0 0 0 0 0 0 0 0 0 0 0 0 0 0
0 0 0 0 0 0 0 0 0 0 0 0 0 0 0 0 0 0 0 0 0 0 0 0 0 0 0 0 0 0 0 0 0 0 0 0 0 0 0 0 0 0 0 0 0
0 0 0 0 0 0 0 0 0 0 0 0 0 0 0 0 0 0 0 0 0 0 0 0 0 0 0 0 0 0 0 0 0 0 0 0 0 0 0 0 0 0 0 0 0
0 0 0 0 0 0 0 0 0 0 0 0 0 0 0 0 0 0 0 0 0 0 0 0 0 0 0 0 0 0 0 0 0 0 0 0 0 0 0 0 0 0 0 0 0
0 0 0 0 0 0 0 0 0 0 0 0 0 0 0 0 0 0 0 0 0 0 0 0 0 0 0 0 0 0 0 0 0 0 0 0 0 0 0 0 0 0 0 0 0
0 0 0 0 0 0 0 0 0 0 0 0 0 0 0 0 0 0 0 0 0 0 0 0 0 0 0 0 0 0 0 0 0 0 0 0 0 0 0 0 0 0 0 0 0
0 0 0 0 0 0 0 0 0 0 0 0 0 0 0 0 0 0 0 0 0 0 0 0 0 0 0 0 0 0 0 0 0 0 0 0 0 0 0 0 0 0 0 0 0
-1 0 0 0 0 0 0 0 0 0 0 0 0 0 0 0 0 0 0 0 0 0 0 0 0 0 0 0 0 0 0 0 0 0 0 0 0 0 0 0 0 0 0 0 0
0 0 0 0 0 0 0 0 -2 -9 -25 0 0 0 0 0 0 0 0 0 0 0 0 0 0 0 0 0 0 0 0 0 0 0 0 0 0 0 0 0 0 0 0 0 0
0 0 0 0 0 0 0 -4 -2 -13 0 0 0 0 0 0 0 0 0 0 0 0 0 0 0 0 0 0 0 0 0 0 0 0 0 0 0 0 0 0 0 0 0 0 0
0 0 0 0 0 0 0 -11 -7 -22 0 0 0 0 -5 0 0 0 0 0 0 0 0 0 0 0 0 0 0 0 0 0 0 0 0 0 0 0 0 0 0 0 0 0 0
0 0 0 0 0 0 -16 0 0 0 0 0 -15 0 -20 0 -1 -4 -4 0 0 0 0 0 0 0 0 0 0 0 0 0 0 0 0 0 0 0 0 0 0 0 0 0 0
-4 -3 0 -5 0 0 0 0 0 0 0 0 0 0 0 -1 -10 0 0 -16 0 0 0 0 0 0 0 0 0 0 0 0 0 0 0 0 0 0 0 0 0 0 0 0 0
-3 0 0 0 -7 0 0 0 0 -43 0 -7 0 0 0 -1 -6 0 0 0 0 0 0 0 0 0 0 0 0 0 0 0 0 0 0 0 0 0 0 0 0 0 0 0 0
-5 0 0 0 0 0 0 0 -1 0 0 0 0 0 0 0 0 -3 -12 0 0 0 0 0 0 0 0 0 0 0 0 0 0 0 0 0 0 0 0 0 0 0 0 0 0
-9 -2 -1 0 0 0 0 -4 -4 -8 -8 0 0 0 0 0 0 0 0 0 0 0 0 0 0 0 0 0 0 0 0 0 0 0 0 0 0 0 0 0 0 0 0 0 0
-5 -4 -1 -2 0 0 0 -1 0 -1 -1 0 -8 0 -18 -2 0 -2 0 0 0 0 0 0 0 0 0 0 0 0 0 0 0 0 0 0 0 0 0 0 0 0 0 0 0
-7 -11 -6 0 -1 -3 0 0 -1 -2 -4 -2 -2 -3 -8 -6 -5 -7 -8 -1 -1 0 0 -1 0 0 0 0 0 0 0 0 0 0 0 0 0 0 0 0 0 0 0 0 0
Wind_Speed
23 24 26 28 29 30 31 33 33 33 33 33 32 31 29 28 23 23 26 25 25 29 27 25 18 19 17 16 17 16 14 14 16 16 16 18 18 15 15 12 13 13 11 11 10
25 26 28 30 31 32 32 33 34 34 33 32 32 31 28 26 23 27 25 27 26 26 23 23 22 22 18 16 16 15 14 14 15 15 15 17 17 14 13 14 11 14 13 11 10
27 28 30 31 32 33 34 35 36 35 32 31 30 29 27 23 20 23 28 27 26 24 20 19 18 18 17 16 15 15 13 14 16 16 17 15 15 13 13 13 11 6 10 10 8
27 29 30 32 34 35 36 36 37 34 33 30 30 29 26 21 24 21 26 27 27 24 21 20 18 17 17 16 14 15 14 13 14 16 16 15 15 13 9 7 10 11 9 8 7
27 29 31 33 34 36 36 37 37 34 31 29 30 29 22 22 21 20 23 24 23 24 22 20 20 18 16 18 16 14 14 16 16 14 15 13 12 11 7 6 8 9 8 6 6
28 30 31 33 35 36 37 37 37 32 29 28 28 28 22 22 19 22 25 23 24 22 21 20 18 17 17 17 17 16 16 14 14 12 14 13 13 16 12 7 8 9 9 7 6
28 30 32 34 36 38 38 38 37 29 25 26 26 23 23 21 20 23 27 20 20 21 19 19 18 18 19 19 19 17 20 19 14 10 14 16 15 11 6 11 8 8 7 8 6
29 31 33 35 37 38 39 39 36 26 24 26 24 22 22 18 18 26 27 18 21 18 18 18 19 18 18 19 19 19 19 23 20 13 14 17 17 19 9 7 7 6 6 7 7
28 31 33 35 37 38 39 38 32 23 25 25 23 23 21 19 25 25 22 20 18 16 17 17 18 20 20 22 22 20 23 21 20 13 16 14 17 15 11 8 6 3 3 6 7
28 30 33 35 38 39 40 36 29 24 28 21 21 23 22 27 24 22 20 19 18 19 18 19 20 22 21 22 27 24 25 22 20 18 14 14 11 12 9 9 5 1 2 4 4
27 29 32 35 38 38 38 30 33 26 32 29 28 24 24 26 18 20 20 20 17 18 21 19 23 23 21 19 20 21 21 21 19 19 17 16 14 15 16 11 8 5 5 5 5
26 28 31 34 36 35 32 31 30 28 34 26 24 21 19 20 19 19 23 21 22 23 22 24 23 20 19 22 22 21 22 20 21 18 18 20 18 18 16 14 9 8 7 8 6
26 26 28 31 32 28 30 30 25 26 30 26 22 20 18 18 18 19 22 22 24 25 25 25 23 20 22 21 22 23 23 22 23 24 21 27 24 21 18 16 10 10 9 9 10
25 25 27 33 25 29 28 23 23 24 32 27 22 18 18 19 19 19 20 25 24 26 26 21 20 20 21 23 20 23 21 22 24 27 26 25 30 24 25 26 19 9 10 9 11
22 22 23 25 26 26 24 23 23 24 32 24 21 16 17 19 20 19 22 25 26 25 24 24 22 22 23 22 18 22 22 23 24 25 26 24 24 26 26 25 25 11 8 8 10
23 21 19 21 21 21 22 23 24 30 31 23 18 19 20 19 22 22 24 22 23 26 23 20 21 22 20 21 20 22 25 24 22 24 28 23 19 25 26 24 21 19 14 11 7
23 20 18 17 22 19 22 25 32 32 25 26 22 21 25 28 26 22 25 28 28 33 29 28 23 20 21 24 23 21 24 29 30 28 28 23 23 24 24 23 20 19 17 18 6
23 15 19 19 16 18 21 25 36 29 28 24 26 29 29 28 23 22 24 29 25 20 27 29 30 19 18 21 25 23 22 25 33 32 30 26 26 27 23 21 22 22 21 19 14
17 22 23 19 14 15 23 36 35 29 28 28 29 33 32 23 25 28 26 28 21 18 23 29 27 22 22 24 22 23 24 21 26 27 31 25 26 23 21 22 23 24 21 20 17
25 26 27 17 13 17 28 37 30 24 24 26 34 29 34 32 30 28 28 25 22 22 20 23 33 22 23 24 22 22 22 26 24 32 34 28 27 27 25 25 23 22 21 19 13
26 32 25 13 16 24 38 35 30 24 23 28 33 32 30 30 29 29 26 26 23 23 21 23 25 27 24 23 25 24 25 23 24 24 31 34 28 19 20 22 22 20 19 17 13
26 36 19 14 29 30 35 32 29 31 27 28 29 28 29 26 32 28 28 24 21 22 25 23 26 30 28 27 23 22 23 22 27 30 28 31 36 21 20 21 20 18 17 16 13
28 28 20 20 38 36 32 32 29 30 27 27 26 23 25 31 30 27 29 24 23 22 23 23 26 35 31 27 25 25 24 25 27 29 33 34 31 18 18 19 18 18 17 15 13
26 33 27 26 29 34 35 37 36 26 29 25 29 28 22 29 27 33 27 23 21 22 22 24 27 28 35 32 29 31 30 29 30 33 35 30 31 24 23 22 22 23 21 15 13
27 32 27 33 33 32 31 34 34 33 25 23 27 25 29 33 30 29 29 29 27 24 24 24 33 31 35 36 36 39 38 33 32 31 33 33 29 25 24 21 21 23 22 18 12
30 30 26 33 28 29 29 32 34 32 29 31 30 27 26 29 27 31 31 31 30 24 23 24 36 34 40 34 34 40 37 33 31 31 31 32 31 26 27 20 22 21 21 21 18
26 26 27 31 31 33 33 31 30 26 28 29 30 31 30 29 30 31 29 27 28 28 28 30 32 34 42 33 34 41 36 29 28 28 27 29 27 25 24 22 23 24 25 25 24
Wind_Direction
329 331 333 335 336 335 335 337 339 340 345 351 356 4 7 12 28 24 15 5 0 341 325 340 22 16 24 28 25 24 41 38 30 28 29 27 24 35 38 37 46 37 40 37 61
332 334 335 336 334 334 331 329 333 335 340 347 354 0 4 9 27 21 15 356 356 356 4 1 7 358 26 35 28 33 32 32 25 24 18 17 20 30 34 37 50 45 51 61 56
338 340 340 340 336 334 332 331 333 336 346 352 1 4 4 12 26 20 5 1 357 2 14 16 18 19 24 27 31 28 26 24 17 18 13 15 19 32 35 32 52 80 86 80 66
341 340 340 340 340 338 335 335 336 328 335 349 353 355 1 19 10 20 10 359 350 360 11 14 17 20 23 23 31 18 20 17 16 12 9 11 14 20 32 47 55 73 107 96 87
341 341 340 339 338 335 335 335 334 335 347 353 352 353 9 11 14 20 16 14 11 4 10 12 11 17 23 19 19 17 15 11 8 9 5 9 6 11 16 58 54 69 109 94 90
338 336 335 333 331 329 331 334 336 346 354 356 354 353 7 4 18 11 5 14 14 15 15 18 25 22 18 14 11 13 5 0 359 3 3 0 0 4 25 56 59 69 115 102 89
335 335 334 333 331 329 328 334 338 353 0 1 358 5 3 5 16 11 360 15 18 17 19 20 21 21 13 7 8 4 356 357 2 7 5 6 356 7 36 43 54 65 96 115 92
337 336 334 333 331 328 324 327 338 357 3 357 0 5 360 15 14 357 359 17 8 19 18 19 17 15 13 6 3 2 3 358 3 14 6 5 353 355 23 34 35 57 89 114 109
336 335 334 332 329 326 322 321 347 359 2 358 1 3 359 8 352 354 6 14 16 28 22 23 21 12 8 2 359 2 353 354 355 2 358 357 351 0 11 9 10 48 101 120 115
335 335 335 334 332 330 325 330 350 358 1 7 6 356 359 347 351 358 11 17 20 16 16 13 7 360 1 360 348 349 347 348 345 355 347 341 331 332 330 327 312 269 162 153 143
334 335 335 335 333 335 338 351 346 345 348 348 343 347 348 347 9 7 13 13 24 18 6 8 356 352 355 356 351 348 345 341 341 345 342 332 324 327 328 321 285 269 214 197 189
331 335 336 336 338 340 349 346 346 344 331 346 351 356 4 7 4 11 3 5 1 356 358 352 347 355 355 349 346 347 344 342 344 357 344 335 320 320 312 304 271 250 230 214 203
327 332 337 337 338 350 348 347 353 351 339 344 354 1 6 8 4 360 2 359 353 348 347 343 347 353 348 349 344 341 340 342 338 342 338 333 327 336 344 338 300 250 247 223 210
325 330 333 333 340 341 342 357 360 356 330 336 349 1 4 0 351 360 1 352 346 342 343 343 350 347 345 340 342 338 346 343 340 339 335 344 328 332 329 325 319 272 245 239 218
324 329 333 340 336 338 344 354 357 353 325 341 351 10 4 357 351 349 351 346 340 342 345 342 340 341 338 339 344 337 342 339 337 334 333 331 324 332 332 327 332 312 249 259 224
316 322 330 335 339 343 347 348 346 325 319 338 352 351 351 349 343 345 344 349 346 342 342 337 344 343 342 343 343 340 336 335 337 337 329 337 331 335 336 339 340 340 323 299 239
313 315 321 332 328 340 342 337 317 310 330 329 337 340 334 333 334 340 341 338 337 333 337 337 337 344 341 339 341 343 340 334 332 333 331 339 332 326 329 338 341 338 328 320 285
315 319 318 323 330 335 331 323 305 311 315 327 326 325 325 330 334 336 335 332 338 336 332 334 333 341 348 340 338 336 336 333 327 328 329 333 327 331 335 345 340 332 322 319 317
317 310 309 314 325 327 315 300 303 310 316 316 320 316 319 327 326 328 326 325 334 338 329 330 330 337 334 334 336 338 330 337 327 325 323 328 327 331 341 341 340 335 332 325 319
302 301 300 307 310 312 302 296 301 309 315 314 307 312 309 313 318 322 322 327 328 331 332 330 321 329 330 332 329 329 335 329 330 326 324 328 325 323 332 336 340 341 340 337 336
297 295 305 303 306 298 289 296 300 302 304 305 304 305 305 311 311 313 316 321 322 325 328 327 322 325 328 327 325 327 322 324 325 320 321 323 325 340 340 339 337 342 344 344 346
292 286 303 302 289 294 289 297 303 301 300 297 304 300 301 307 311 310 309 311 321 321 319 319 321 315 314 319 319 317 317 316 314 319 316 314 312 327 329 331 332 334 336 336 338
287 287 293 293 285 286 295 295 298 300 297 301 300 300 302 304 303 304 309 312 314 314 319 322 317 316 321 325 321 316 316 313 312 311 303 308 315 335 336 334 334 334 334 333 330
287 285 287 283 287 287 288 292 293 296 296 294 298 303 296 299 296 305 305 310 309 311 312 316 308 304 306 316 319 313 311 312 310 305 305 295 301 310 315 317 319 320 318 321 323
281 283 284 286 282 283 287 293 293 293 294 296 298 288 296 297 299 296 298 301 306 305 307 306 303 302 301 302 303 302 303 305 301 301 299 306 301 307 309 307 310 315 316 314 313
275 280 286 288 286 283 281 286 284 288 290 293 290 294 291 292 294 301 301 303 302 304 298 303 303 307 304 305 303 301 302 301 297 295 293 298 296 303 306 306 306 303 305 301 296
273 283 281 285 283 282 283 284 290 289 291 288 292 293 292 292 294 297 299 299 300 302 297 300 301 304 303 310 309 304 307 303 302 302 296 294 299 308 306 305 308 309 311 306 301